| time (UTC) | temp C | wind direction | speed KPH | gust KPH | rain 1hr cm | rain 24hr cm | rain mn cm | humidity % | barometer mb |
| 20260506061556 | 13 | 0 | 0.0 | 0.0 | 0.00 | 0.03 | 0.03 | 87 | 1018.8 |
| 20260506044552 | 13 | 0 | 0.0 | 0.0 | 0.00 | 0.03 | 0.03 | 86 | 1018.4 |
| 20260506043052 | 13 | 0 | 0.0 | 1.6 | 0.00 | 0.03 | 0.03 | 86 | 1018.2 |
| 20260506041555 | 13 | 0 | 0.0 | 0.0 | 0.00 | 0.03 | 0.03 | 85 | 1018.1 |
| 20260506040108 | 13 | 0 | 0.0 | 0.0 | 0.00 | 0.03 | 0.03 | 85 | 1017.9 |
| 20260506034553 | 13 | 0 | 0.0 | 1.6 | 0.00 | 0.03 | 0.03 | 85 | 1017.8 |
| 20260506033055 | 13 | 0 | 0.0 | 0.0 | 0.00 | 0.03 | 0.03 | 84 | 1017.7 |
| 20260506031553 | 13 | 0 | 0.0 | 0.0 | 0.00 | 0.03 | 0.03 | 84 | 1017.6 |
| 20260506024558 | 14 | 0 | 0.0 | 4.8 | 0.00 | 0.03 | 0.03 | 84 | 1017.2 |
| 20260506023052 | 14 | 0 | 0.0 | 0.0 | 0.00 | 0.03 | 0.03 | 84 | 1017.0 |
| 20260506021603 | 14 | 0 | 0.0 | 0.0 | 0.00 | 0.03 | 0.03 | 84 | 1016.9 |
| 20260506020051 | 15 | 0 | 0.0 | 0.0 | 0.00 | 0.03 | 0.03 | 84 | 1017.1 |
| 20260506014600 | 15 | 0 | 0.0 | 0.0 | 0.00 | 0.03 | 0.03 | 84 | 1017.1 |
| 20260506013054 | 15 | 0 | 0.0 | 1.6 | 0.00 | 0.03 | 0.03 | 83 | 1017.0 |
| 20260506011551 | 15 | 0 | 0.0 | 1.6 | 0.00 | 0.03 | 0.03 | 83 | 1017.1 |
| 20260506010103 | 15 | 0 | 0.0 | 4.8 | 0.00 | 0.03 | 0.03 | 83 | 1016.9 |
| 20260506004553 | 15 | 0 | 0.0 | 8.0 | 0.00 | 0.03 | 0.03 | 82 | 1016.9 |
| 20260506003052 | 15 | 0 | 0.0 | 3.2 | 0.00 | 0.03 | 0.03 | 82 | 1016.8 |
| 20260506001553 | 15 | 0 | 0.0 | 8.0 | 0.00 | 0.03 | 0.03 | 82 | 1016.7 |
| 20260506000059 | 15 | 311 | 1.6 | 11.3 | 0.00 | 0.03 | 0.03 | 81 | 1016.7 |
| 20260505234554 | 15 | 0 | 0.0 | 11.3 | 0.00 | 0.03 | 0.03 | 81 | 1016.7 |
| 20260505233112 | 15 | 307 | 3.2 | 8.0 | 0.00 | 0.03 | 0.03 | 81 | 1016.8 |
| 20260505231552 | 16 | 306 | 0.0 | 6.4 | 0.00 | 0.03 | 0.03 | 80 | 1017.0 |
| 20260505230054 | 16 | 286 | 3.2 | 11.3 | 0.00 | 0.03 | 0.03 | 80 | 1017.0 |
| 20260505224556 | 16 | 0 | 1.6 | 11.3 | 0.00 | 0.03 | 0.03 | 80 | 1016.9 |
| 20260505223055 | 16 | 319 | 1.6 | 11.3 | 0.00 | 0.03 | 0.03 | 81 | 1016.9 |
| 20260505221603 | 16 | 0 | 0.0 | 11.3 | 0.00 | 0.03 | 0.03 | 82 | 1016.9 |
| 20260505220054 | 16 | 0 | 1.6 | 8.0 | 0.00 | 0.03 | 0.03 | 81 | 1017.0 |
| 20260505214553 | 16 | 304 | 3.2 | 12.9 | 0.00 | 0.03 | 0.03 | 80 | 1017.0 |
| 20260505213054 | 16 | 296 | 1.6 | 11.3 | 0.00 | 0.03 | 0.03 | 80 | 1017.1 |
| 20260505211552 | 16 | 0 | 0.0 | 11.3 | 0.00 | 0.03 | 0.03 | 79 | 1017.2 |
| 20260505210058 | 16 | 300 | 4.8 | 11.3 | 0.00 | 0.03 | 0.03 | 78 | 1017.0 |
| 20260505204553 | 17 | 310 | 0.0 | 8.0 | 0.00 | 0.03 | 0.03 | 80 | 1017.0 |
| 20260505203056 | 16 | 300 | 1.6 | 11.3 | 0.00 | 0.03 | 0.03 | 81 | 1017.1 |
| 20260505201555 | 16 | 301 | 1.6 | 11.3 | 0.00 | 0.03 | 0.03 | 82 | 1017.0 |
| 20260505200055 | 16 | 306 | 1.6 | 8.0 | 0.00 | 0.03 | 0.03 | 85 | 1017.2 |
| 20260505194558 | 15 | 313 | 4.8 | 12.9 | 0.00 | 0.03 | 0.03 | 87 | 1017.2 |
| 20260505193110 | 15 | 317 | 3.2 | 11.3 | 0.00 | 0.03 | 0.03 | 87 | 1017.1 |
| 20260505191605 | 15 | 0 | 1.6 | 12.9 | 0.00 | 0.03 | 0.03 | 89 | 1017.2 |
| 20260505190056 | 14 | 297 | 4.8 | 8.0 | 0.00 | 0.03 | 0.03 | 91 | 1017.0 |
| 20260505184556 | 14 | 0 | 1.6 | 6.4 | 0.00 | 0.03 | 0.03 | 92 | 1017.0 |
| 20260505183054 | 14 | 0 | 1.6 | 4.8 | 0.00 | 0.03 | 0.03 | 93 | 1016.9 |
| 20260505181552 | 13 | 0 | 0.0 | 1.6 | 0.00 | 0.03 | 0.03 | 93 | 1016.9 |
| 20260505180056 | 13 | 123 | 0.0 | 3.2 | 0.00 | 0.03 | 0.03 | 93 | 1016.7 |
| 20260505174553 | 12 | 0 | 0.0 | 1.6 | 0.00 | 0.03 | 0.03 | 93 | 1016.7 |
| 20260505173054 | 12 | 0 | 0.0 | 3.2 | 0.00 | 0.03 | 0.03 | 93 | 1016.6 |
| 20260505171558 | 12 | 0 | 0.0 | 3.2 | 0.00 | 0.03 | 0.03 | 93 | 1016.4 |
| 20260505170054 | 12 | 0 | 0.0 | 3.2 | 0.00 | 0.03 | 0.03 | 93 | 1016.4 |
| 20260505164556 | 12 | 0 | 0.0 | 3.2 | 0.00 | 0.03 | 0.03 | 93 | 1016.4 |
| 20260505163058 | 12 | 0 | 0.0 | 4.8 | 0.03 | 0.03 | 0.03 | 92 | 1016.3 |
| 20260505161559 | 12 | 0 | 0.0 | 1.6 | 0.03 | 0.03 | 0.03 | 93 | 1016.2 |
| 20260505153102 | 11 | 0 | 0.0 | 0.0 | 0.00 | 0.00 | 0.00 | 93 | 1016.0 |
| 20260505151554 | 11 | 0 | 0.0 | 0.0 | 0.00 | 0.00 | 0.00 | 93 | 1015.9 |
| 20260505130116 | 11 | 0 | 0.0 | 0.0 | 0.00 | 0.00 | 0.00 | 92 | 1015.4 |
| 20260505124606 | 11 | 0 | 0.0 | 0.0 | 0.00 | 0.00 | 0.00 | 91 | 1015.3 |
| 20260505123115 | 11 | 0 | 0.0 | 1.6 | 0.00 | 0.00 | 0.00 | 91 | 1015.1 |
| 20260505121557 | 11 | 0 | 0.0 | 1.6 | 0.00 | 0.00 | 0.00 | 91 | 1015.1 |
| 20260505120113 | 11 | 0 | 0.0 | 0.0 | 0.00 | 0.00 | 0.00 | 91 | 1015.5 |
| 20260505114600 | 11 | 0 | 0.0 | 0.0 | 0.00 | 0.00 | 0.00 | 91 | 1015.6 |
| 20260505113102 | 11 | 0 | 0.0 | 0.0 | 0.00 | 0.00 | 0.00 | 91 | 1015.9 |
| 20260505111559 | 11 | 0 | 0.0 | 1.6 | 0.00 | 0.00 | 0.00 | 90 | 1015.6 |
| 20260505101604 | 11 | 0 | 0.0 | 3.2 | 0.00 | 0.00 | 0.00 | 89 | 1015.4 |
| 20260505100057 | 11 | 0 | 0.0 | 0.0 | 0.00 | 0.00 | 0.00 | 89 | 1015.5 |
| 20260505094555 | 11 | 0 | 0.0 | 0.0 | 0.00 | 0.00 | 0.00 | 89 | 1015.7 |
| 20260505093052 | 11 | 0 | 0.0 | 0.0 | 0.00 | 0.00 | 0.00 | 89 | 1015.7 |
| 20260505091617 | 11 | 0 | 0.0 | 1.6 | 0.00 | 0.00 | 0.00 | 88 | 1015.9 |
| 20260505090119 | 11 | 0 | 0.0 | 3.2 | 0.00 | 0.00 | 0.00 | 88 | 1016.1 |
| 20260505084611 | 11 | 0 | 0.0 | 3.2 | 0.00 | 0.00 | 0.00 | 88 | 1016.0 |
| 20260505083107 | 11 | 0 | 0.0 | 4.8 | 0.00 | 0.00 | 0.00 | 87 | 1015.9 |
| 20260505081603 | 11 | 0 | 0.0 | 3.2 | 0.00 | 0.00 | 0.00 | 86 | 1016.2 |
| 20260505080100 | 11 | 0 | 0.0 | 0.0 | 0.00 | 0.00 | 0.00 | 86 | 1016.4 |
| 20260505074559 | 11 | 0 | 0.0 | 0.0 | 0.00 | 0.00 | 0.00 | 85 | 1016.6 |
| 20260505073056 | 11 | 0 | 0.0 | 0.0 | 0.00 | 0.00 | 0.00 | 85 | 1016.6 |
| 20260505071613 | 11 | 344 | 1.6 | 4.8 | 0.00 | 0.00 | 0.00 | 85 | 1016.4 |
| 20260505070054 | 11 | 325 | 0.0 | 4.8 | 0.00 | 0.00 | 0.00 | 84 | 1016.4 |
| 20260505064610 | 12 | 352 | 1.6 | 6.4 | 0.00 | 0.00 | 0.00 | 83 | 1016.1 |
| 20260505063100 | 12 | 0 | 1.6 | 8.0 | 0.00 | 0.00 | 0.00 | 82 | 1015.9 |